#timestamp,LO_Frequency,Hit 
1497600015.3,286046993.1,N
1497600035.1,286046993.9,N
1497600036.0,286046993.9,N
1497600055.8,286046991.8,N
1497600075.7,286046994.4,N
1497600095.5,286046992.1,N
1497600115.3,286046994.5,N
1497600135.2,286046994.6,N
1497600155.0,286046991.8,N
1497600155.9,286046991.8,N
1497600175.8,286046992.3,N
1497600195.6,286046994.7,N
1497600215.4,286046992.3,N
1497600235.3,286046991.7,N
1497600255.1,286046994.8,N
1497600275.9,286046991.7,N
1497600295.7,286046994.8,N
1497600315.5,286046993.9,N
1497600335.4,286046994.6,N
1497600355.2,286046991.8,N
1497600375.0,286046992.7,N
1497600375.9,286046992.7,N
1497600395.8,286046992.0,N
1497600415.6,286046994.5,N
1497600435.5,286046993.5,N
1497600455.3,286046996.4,N
1497600475.1,286046994.0,N
1497600495.9,286046992.7,N
1497600515.7,286046989.3,N
1497600535.5,286046990.4,N
1497600555.4,286046991.2,N
1497600575.2,286046991.1,N
1497600595.1,286046991.2,N
1497600596.0,286046991.2,N
1497600615.8,286046991.1,N
1497600635.6,286046988.9,N
1497600655.5,286046990.9,N
1497600675.3,286046990.3,N
1497600695.2,286046992.1,N
1497600715.9,286046994.0,N
1497600735.7,286046992.0,N
1497600755.6,286046991.8,N
1497600775.4,286046993.6,N
1497600795.2,286046994.0,N
1497600815.1,286046993.3,N
1497600816.0,286046993.3,N
1497600835.8,286046994.8,N
1497600855.7,286046994.6,N
1497600875.5,286046994.0,N
1497600895.3,286046995.8,N
1497600915.2,286046995.9,N
1497600935.0,286046995.7,N
1497600935.9,286046995.7,N
1497600955.8,286046996.2,N
1497600975.6,286046993.6,N
1497600995.4,286046994.2,N
1497601015.3,286046992.3,N
1497601035.1,286046994.1,N
1497601055.8,286046996.4,N
1497601075.7,286046994.8,N
1497601095.5,286046992.9,N
1497601115.3,286046994.7,N
1497601135.2,286046992.0,N
1497601155.0,286046992.2,N
1497601155.9,286046992.2,N
1497601175.8,286046992.0,N
1497601195.6,286046992.6,N
1497601215.4,286046990.1,N
1497601235.3,286046991.0,N
1497601255.1,286046990.1,N
1497601275.9,286046992.3,N
1497601295.7,286046992.4,N
1497601315.5,286046993.2,N
1497601335.4,286046989.5,N
1497601355.2,286046991.2,N
1497601375.0,286046993.1,N
1497601375.9,286046993.1,N
1497601395.8,286046994.2,N
1497601415.6,286046994.3,N
1497601435.5,286046994.1,N
1497601455.3,286046991.8,N
1497601475.1,286046992.1,N
1497601495.9,286046990.3,N
1497601515.7,286046993.1,N
1497601535.5,286046990.9,N
1497601555.4,286046989.4,N
1497601575.2,286046989.5,N
1497601595.1,286046987.1,N
1497601596.0,286046987.1,N
1497601615.8,286046987.7,N
1497601635.6,286046987.8,N
1497601655.5,286046987.0,N
1497601675.3,286046987.6,N
1497601695.1,286046989.3,N
1497601715.9,286046989.2,N
1497601735.7,286046989.5,N
1497601755.6,286046987.9,N
1497601775.4,286046985.4,N
1497601795.2,286046987.9,N
1497601815.1,286046985.3,N
1497601816.0,286046985.3,N
1497601835.8,286046985.8,N
1497601855.6,286046986.5,N
1497601875.5,286046986.0,N
1497601895.3,286046985.9,N
1497601915.2,286046985.4,N
1497601935.9,286046985.8,N
1497601955.7,286046987.7,N
1497601975.6,286046989.1,N
1497601995.4,286046985.9,N
1497602015.2,286046985.5,N
1497602035.1,286046986.8,N
1497602036.0,286046986.8,N
1497602055.8,286046985.0,N
1497602075.7,286046982.4,N
1497602095.5,286046984.3,N
1497602115.3,286046983.6,N
1497602135.2,286046984.8,N
1497602155.0,286046982.4,N
1497602155.9,286046982.4,N
1497602175.8,286046984.6,N
1497602195.6,286046985.8,N
1497602215.4,286046989.1,N
1497602235.3,286046989.9,N
1497602255.1,286046986.9,N
1497602275.8,286046988.2,N
1497602295.7,286046985.8,N
1497602315.5,286046986.0,N
1497602335.4,286046987.0,N
1497602355.2,286046984.2,N
1497602375.0,286046979.7,N
1497602375.9,286046979.7,N
1497602395.8,286046973.6,N
1497602415.6,286046968.9,N
1497602435.4,286046961.9,N
1497602455.3,286046958.8,N
1497602475.1,286046957.6,N
1497602495.9,286046950.6,N
1497602515.7,286046946.9,N
1497602535.5,286046945.7,N
1497602555.4,286046942.2,N
1497602575.2,286046938.9,N
1497602595.0,286046937.0,N
1497602595.9,286046937.0,N
1497602615.8,286046935.1,N
1497602635.6,286046929.4,N
1497602655.5,286046928.9,N
1497602675.3,286046924.6,N
1497602695.1,286046925.3,N
1497602715.9,286046921.9,N
1497602735.7,286046920.9,N
1497602755.5,286046919.3,N
1497602775.4,286046917.8,N
1497602795.2,286046915.2,N
1497602815.1,286046913.9,N
1497602816.0,286046913.9,N
1497602835.8,286046912.4,N
1497602855.6,286046911.5,N
1497602875.5,286046907.7,N
1497602895.3,286046907.8,N
1497602915.1,286046905.6,N
1497602935.9,286046903.6,N
1497602955.7,286046899.8,N
1497602975.6,286046896.2,N
1497602995.4,286046893.2,N
1497603015.2,286046890.9,N
1497603035.1,286046890.2,N
1497603036.0,286046890.2,N
1497603055.8,286046886.4,N
1497603075.7,286046885.2,N
1497603095.5,286046884.1,N
1497603115.3,286046883.9,N
1497603135.2,286046882.5,N
1497603155.0,286046880.9,N
1497603155.9,286046880.9,N
1497603175.7,286046876.9,N
1497603195.6,286046875.6,N
1497603215.4,286046877.9,N
1497603235.3,286046876.1,N
1497603255.1,286046871.8,N
1497603256.0,286046871.8,N
1497603275.8,286046870.4,N
1497603295.7,286046871.6,N
1497603315.5,286046870.0,N
1497603335.3,286046865.9,N
1497603355.2,286046866.4,N
1497603375.0,286046863.4,N
1497603375.9,286046863.4,N
1497603395.8,286046861.3,N
1497603415.6,286046861.5,N
1497603435.4,286046859.0,N
1497603455.3,286046858.1,N
1497603475.1,286046855.7,N
1497603495.8,286046856.2,N
1497603515.7,286046854.3,N
1497603535.5,286046853.3,N
1497603555.4,286046852.8,N
1497603575.2,286046851.7,N
1497603595.0,286046849.6,N
1497603595.9,286046849.6,N
